Location: ??????
(38.3184°N, 23.6932°E)
Time: 02:20:09
(UTC+00:00)

Cosmos 1607 - Pass Details

Date: 16 October 2021
Orbit: 918 x 984 km, 65.0° (Epoch: 04 December)

Event Time Altitude Azimuth Distance (km) Brightness Sun altitude
Rises 17:42:52 0° 326° (NW) 3,646 7.6 -23.7°
Reaches altitude 10° 17:45:27 10° 324° (NW) 2,687 6.9 -24.2°
Maximum altitude 17:51:39 65° 243° (WSW) 1,028 4.2 -25.4°
Enters shadow 17:54:59 28° 170° (S) 1,681 5.0 -26.0°
